Zurück zum Katalog

QIANFAN-147

AktivKommunikationPO
NORAD 69106·PAYLOAD·🇨🇳 China

Gestartet May 17, 2026 von Wenchang Space Launch Site

Loading…

Nächste Überflüge (nächste 24 Stunden)

TLE

AktuellSource: Space-Track

Epoche: Sep 14, 2026, 21:47 UTC

1 69106U 26108C   26257.90795518  .00000109  00000-0  15075-3 0  9996
2 69106  89.0192  13.0929 0002081 103.4669 256.6715 13.51024086 16545

Verfolge QIANFAN-147 in Echtzeit mit AllMySat

Download on the App Store